• In Hungary
  • List of Countries
  • For 7 days
  • Water Temperature
  • Satellite Maps
  • Weather Map
  • News
  • Weather Widgets
  • user-avatar
    Login

    Hourly Weather San Rafael

    Today, 26 February, Monday

    Time Temperature Precipitation Wind Pressure Humidity
    00:00 +12°C° 0 mm 1 mps 613 mmHg 82%
    01:00 +12°C° 0 mm 1 mps 613 mmHg 82%
    02:00 +12°C° 0 mm 1 mps 612 mmHg 81%
    03:00 +12°C° 0 mm 1 mps 612 mmHg 81%
    04:00 +12°C° 0 mm 1 mps 612 mmHg 80%
    05:00 +12°C° 0 mm 1 mps 613 mmHg 80%
    06:00 +12°C° 0 mm 1 mps 613 mmHg 79%
    07:00 +14°C° 0 mm 1 mps 614 mmHg 71%
    08:00 +18°C° 0 mm 1 mps 615 mmHg 63%
    09:00 +20°C° 0 mm 1 mps 617 mmHg 55%
    10:00 +20°C° 0 mm 2 mps 617 mmHg 54%
    11:00 +20°C° 0 mm 2 mps 617 mmHg 54%
    12:00 +21°C° 0 mm 2 mps 617 mmHg 54%
    13:00 +20°C° 0.2 mm 2 mps 616 mmHg 59%
    14:00 +19°C° 0.2 mm 2 mps 615 mmHg 64%
    15:00 +18°C° 0.2 mm 2 mps 614 mmHg 69%
    16:00 +18°C° 0.1 mm 1 mps 614 mmHg 75%
    17:00 +16°C° 0.1 mm 1 mps 613 mmHg 82%
    18:00 +14°C° 0.1 mm 1 mps 613 mmHg 88%
    19:00 +14°C° 0 mm 1 mps 613 mmHg 88%
    20:00 +14°C° 0 mm 1 mps 613 mmHg 88%
    21:00 +13°C° 0 mm 1 mps 614 mmHg 88%
    22:00 +13°C° 0 mm 1 mps 613 mmHg 86%
    23:00 +13°C° 0 mm 1 mps 613 mmHg 84%

    Tomorrow, 27 February, Tuesday

    Time Temperature Precipitation Wind Pressure Humidity
    00:00 +12°C° 0 mm 1 mps 613 mmHg 83%
    01:00 +12°C° 0 mm 1 mps 613 mmHg 82%
    02:00 +12°C° 0 mm 1 mps 612 mmHg 81%
    03:00 +12°C° 0 mm 2 mps 612 mmHg 80%
    04:00 +12°C° 0 mm 2 mps 612 mmHg 79%
    05:00 +12°C° 0 mm 1 mps 612 mmHg 79%
    06:00 +12°C° 0 mm 1 mps 613 mmHg 78%
    07:00 +14°C° 0 mm 1 mps 614 mmHg 72%
    08:00 +18°C° 0 mm 1 mps 615 mmHg 65%
    09:00 +20°C° 0 mm 1 mps 617 mmHg 58%
    10:00 +19°C° 0.1 mm 2 mps 617 mmHg 57%
    11:00 +20°C° 0.1 mm 2 mps 616 mmHg 55%
    12:00 +21°C° 0.1 mm 2 mps 616 mmHg 54%
    13:00 +20°C° 0.1 mm 2 mps 615 mmHg 56%
    14:00 +20°C° 0.1 mm 2 mps 615 mmHg 58%
    15:00 +19°C° 0.1 mm 2 mps 614 mmHg 60%
    16:00 +18°C° 0 mm 2 mps 613 mmHg 68%
    17:00 +16°C° 0 mm 1 mps 613 mmHg 76%
    18:00 +14°C° 0 mm 1 mps 612 mmHg 83%
    19:00 +14°C° 0 mm 1 mps 613 mmHg 83%
    20:00 +14°C° 0 mm 1 mps 613 mmHg 84%
    21:00 +13°C° 0 mm 1 mps 613 mmHg 84%
    22:00 +13°C° 0 mm 1 mps 613 mmHg 81%
    23:00 +12°C° 0 mm 1 mps 613 mmHg 79%

    Day after tomorrow, 28 February, Wednesday

    Time Temperature Precipitation Wind Pressure Humidity
    00:00 +12°C° 0 mm 1 mps 613 mmHg 77%
    01:00 +12°C° 0 mm 1 mps 612 mmHg 75%
    02:00 +12°C° 0 mm 1 mps 612 mmHg 74%
    03:00 +11°C° 0 mm 1 mps 611 mmHg 73%
    04:00 +10°C° 0 mm 2 mps 611 mmHg 72%
    05:00 +10°C° 0 mm 2 mps 612 mmHg 72%
    06:00 +12°C° 0 mm 2 mps 612 mmHg 72%
    07:00 +14°C° 0 mm 2 mps 613 mmHg 65%
    08:00 +18°C° 0 mm 1 mps 615 mmHg 59%
    09:00 +20°C° 0 mm 1 mps 616 mmHg 53%
    10:00 +20°C° 0 mm 2 mps 616 mmHg 53%
    11:00 +21°C° 0 mm 2 mps 616 mmHg 52%
    12:00 +21°C° 0 mm 2 mps 615 mmHg 52%
    13:00 +20°C° 0.1 mm 2 mps 615 mmHg 57%
    14:00 +19°C° 0.1 mm 2 mps 614 mmHg 61%
    15:00 +18°C° 0.1 mm 2 mps 613 mmHg 66%
    16:00 +18°C° 0.1 mm 1 mps 613 mmHg 73%
    17:00 +16°C° 0.1 mm 1 mps 612 mmHg 79%
    18:00 +15°C° 0.1 mm 1 mps 612 mmHg 86%
    19:00 +14°C° 0 mm 1 mps 612 mmHg 87%
    20:00 +14°C° 0 mm 1 mps 613 mmHg 87%
    21:00 +14°C° 0 mm 1 mps 613 mmHg 88%
    22:00 +13°C° 0.1 mm 1 mps 613 mmHg 87%
    23:00 +13°C° 0.1 mm 1 mps 612 mmHg 87%

    1 March, Thursday

    Time Temperature Precipitation Wind Pressure Humidity
    00:00 +12°C° 0.1 mm 1 mps 612 mmHg 87%
    01:00 +12°C° 0.1 mm 1 mps 612 mmHg 86%
    02:00 +12°C° 0.1 mm 1 mps 611 mmHg 85%
    03:00 +12°C° 0.1 mm 1 mps 611 mmHg 84%
    04:00 +12°C° 0.1 mm 1 mps 611 mmHg 83%
    05:00 +11°C° 0.1 mm 1 mps 611 mmHg 81%
    06:00 +11°C° 0.1 mm 1 mps 611 mmHg 80%
    07:00 +14°C° 0 mm 1 mps 613 mmHg 71%
    08:00 +18°C° 0 mm 1 mps 614 mmHg 62%
    09:00 +21°C° 0 mm 1 mps 616 mmHg 54%
    10:00 +21°C° 0 mm 1 mps 616 mmHg 54%
    11:00 +21°C° 0 mm 2 mps 615 mmHg 54%
    12:00 +21°C° 0 mm 2 mps 615 mmHg 53%
    13:00 +20°C° 0.2 mm 2 mps 614 mmHg 60%
    14:00 +20°C° 0.2 mm 1 mps 613 mmHg 66%
    15:00 +18°C° 0.2 mm 1 mps 612 mmHg 73%
    16:00 +16°C° 0.2 mm 1 mps 612 mmHg 78%
    17:00 +16°C° 0.2 mm 1 mps 612 mmHg 83%
    18:00 +15°C° 0.2 mm 1 mps 612 mmHg 88%
    19:00 +14°C° 0.1 mm 1 mps 613 mmHg 88%
    20:00 +14°C° 0.1 mm 1 mps 613 mmHg 89%
    21:00 +14°C° 0.1 mm 1 mps 613 mmHg 89%
    22:00 +14°C° 0.1 mm 1 mps 613 mmHg 89%
    23:00 +13°C° 0.1 mm 1 mps 613 mmHg 89%

    2 March, Friday

    Time Temperature Precipitation Wind Pressure Humidity
    00:00 +13°C° 0.1 mm 1 mps 613 mmHg 89%
    01:00 +13°C° 0.1 mm 1 mps 612 mmHg 88%
    02:00 +12°C° 0.1 mm 1 mps 612 mmHg 87%
    03:00 +12°C° 0.1 mm 1 mps 612 mmHg 86%
    04:00 +12°C° 0 mm 1 mps 612 mmHg 84%
    05:00 +11°C° 0 mm 1 mps 612 mmHg 82%
    06:00 +11°C° 0 mm 1 mps 612 mmHg 80%
    07:00 +14°C° 0 mm 1 mps 613 mmHg 69%
    08:00 +18°C° 0 mm 1 mps 615 mmHg 57%
    09:00 +21°C° 0 mm 1 mps 616 mmHg 45%
    10:00 +21°C° 0 mm 2 mps 616 mmHg 43%
    11:00 +23°C° 0 mm 2 mps 616 mmHg 40%
    12:00 +24°C° 0 mm 2 mps 616 mmHg 38%
    13:00 +23°C° 0 mm 2 mps 615 mmHg 44%
    14:00 +21°C° 0 mm 2 mps 614 mmHg 49%
    15:00 +20°C° 0 mm 2 mps 613 mmHg 55%
    16:00 +18°C° 0.1 mm 2 mps 613 mmHg 65%
    17:00 +16°C° 0.1 mm 1 mps 613 mmHg 76%
    18:00 +14°C° 0.1 mm 1 mps 612 mmHg 86%
    19:00 +14°C° 0 mm 1 mps 612 mmHg 86%
    20:00 +14°C° 0 mm 1 mps 613 mmHg 86%
    21:00 +13°C° 0 mm 1 mps 613 mmHg 86%
    22:00 +13°C° 0 mm 1 mps 612 mmHg 84%
    23:00 +12°C° 0 mm 1 mps 612 mmHg 83%

    3 March, Saturday

    Time Temperature Precipitation Wind Pressure Humidity
    00:00 +12°C° 0 mm 1 mps 612 mmHg 81%
    01:00 +12°C° 0 mm 1 mps 612 mmHg 78%
    02:00 +12°C° 0 mm 1 mps 611 mmHg 76%
    03:00 +11°C° 0 mm 1 mps 611 mmHg 73%
    04:00 +11°C° 0 mm 1 mps 611 mmHg 72%
    05:00 +11°C° 0 mm 1 mps 612 mmHg 71%
    06:00 +11°C° 0 mm 1 mps 612 mmHg 70%
    07:00 +14°C° 0 mm 1 mps 613 mmHg 62%
    08:00 +18°C° 0 mm 1 mps 615 mmHg 53%
    09:00 +21°C° 0 mm 1 mps 616 mmHg 45%
    10:00 +21°C° 0 mm 2 mps 616 mmHg 44%
    11:00 +23°C° 0 mm 2 mps 616 mmHg 43%
    12:00 +24°C° 0 mm 2 mps 616 mmHg 42%
    13:00 +23°C° 0.1 mm 2 mps 615 mmHg 49%
    14:00 +20°C° 0.1 mm 2 mps 614 mmHg 56%
    15:00 +19°C° 0.1 mm 2 mps 613 mmHg 63%
    16:00 +19°C° 0.1 mm 1 mps 613 mmHg 71%
    17:00 +16°C° 0.1 mm 1 mps 612 mmHg 78%
    18:00 +15°C° 0.1 mm 1 mps 612 mmHg 86%
    19:00 +14°C° 0 mm 1 mps 612 mmHg 86%
    20:00 +14°C° 0 mm 1 mps 612 mmHg 86%
    21:00 +14°C° 0 mm 1 mps 613 mmHg 86%
    22:00 +14°C° 0 mm 1 mps 613 mmHg 85%
    23:00 +14°C° 0 mm 1 mps 612 mmHg 85%
    Show more